User: anonymous   Login
Location: Unspecified
(40.9447°N, 78.9903°W)
Time: 07:50:14
(UTC-04:00)
Language:

Envisat - Orbit

View from above orbital plane
View from above orbital plane
View from above satellite
View from above satellite

Ground track
Ground track

The orbit data is extracted from the following two-line orbital elements,

1 27386U 02009A   20218.06285312  .00000008  00000-0  15935-4 0  9992
2 27386  98.1363 222.5561 0001412  89.2343 337.6779 14.37987952965601
Epoch (UTC): 05 August 2020 01:30:30
Eccentricity: 0.0001412
inclination: 98.1363°
perigee height: 764 km
apogee height: 766 km
right ascension of ascending node: 222.5561°
argument of perigee: 89.2343°
revolutions per day: 14.37987952
mean anomaly at epoch: 337.6779°
orbit number at epoch: 96560

The dashed part of the orbit path shows where the satellite is in the earth's shadow,  

DLR